Overview Statistics Trail Chart Weather Telemetry Raw packets
 

This is the latest recevied weather packets stored in our database for station/object G4KVI. If no packets are shown the sender has not sent any weather packets the latest 10 day(s).

<< 22 23 24 25 26 27 28 >>
Time Temp. Humidity Pressure Rain* Wind** Luminosity Snow
1788440104 23.33° C 74% 1020 hPa 0 mm - 559 W/m² -
1788439804 23.33° C 72% 1019.8 hPa 0 mm - 412 W/m² -
1788439504 23.33° C 74% 1019.6 hPa 0 mm - 395 W/m² -
1788439204 23.33° C 72% 1019.7 hPa 0 mm - 311 W/m² -
1788438904 23.89° C 70% 1019.9 hPa 0 mm - 388 W/m² -
1788438604 23.89° C 71% 1020 hPa 0 mm - 765 W/m² -
1788438304 23.33° C 73% 1020 hPa 0 mm - 813 W/m² -
1788438004 22.78° C 76% 1020.1 hPa 0 mm - 351 W/m² -
1788437704 22.22° C 76% 1019.8 hPa 0 mm - 570 W/m² -
1788437404 22.78° C 75% 1020.1 hPa 0 mm - 267 W/m² -
1788437104 22.22° C 76% 1020.3 hPa 0 mm - 418 W/m² -
1788436804 22.22° C 76% 1020.3 hPa 0 mm - 505 W/m² -
1788436504 22.22° C 77% 1020.2 hPa 0 mm - 477 W/m² -
1788436204 22.22° C 75% 1019.9 hPa 0 mm - 272 W/m² -
1788435904 22.78° C 74% 1020.1 hPa 0 mm - 500 W/m² -
1788435604 22.78° C 77% 1020.4 hPa 0 mm - 361 W/m² -
1788435304 22.78° C 75% 1020.2 hPa 0 mm - 402 W/m² -
1788435004 22.78° C 74% 1020.1 hPa 0 mm - 873 W/m² -
1788434704 22.78° C 75% 1020.3 hPa 0 mm - 355 W/m² -
1788434404 22.78° C 75% 1020.3 hPa 0 mm - 397 W/m² -
1788434104 22.22° C 77% 1020.2 hPa 0 mm - 303 W/m² -
1788433804 22.22° C 78% 1020.2 hPa 0 mm - 457 W/m² -
1788433504 21.67° C 80% 1020.2 hPa 0 mm - 471 W/m² -
1788433204 21.67° C 79% 1020.5 hPa 0 mm - 306 W/m² -
1788432904 21.11° C 81% 1020.3 hPa 0 mm - 218 W/m² -

* Rain latest hour (hover to see other rain measurements)
** Current wind speed in m/s (hover to see current wind gust speed)